Location: Quebec
(46.8000°N, 71.2500°W)
Time: 01:51:49
(UTC-04:00)

Vanguard 1 Rocket - All Passes

Search period start: 17 October 2017 00:00
Search period end: 27 October 2017 00:00
Orbit: 655 x 4222 km, 34.3° (Epoch: 16 October)

Date Brightness Start Highest point End Pass type
(mag) Time Alt. Az. Time Alt. Az. Time Alt. Az.
17 Oct - 08:09:16 10° SSW 08:11:42 13° SSE 08:13:51 10° SE daylight
17 Oct - 10:32:39 10° SW 10:35:50 18° S 10:38:56 10° SE daylight
17 Oct - 12:57:42 10° SW 12:59:52 13° SSW 13:02:18 10° SSE daylight
18 Oct - 07:00:36 10° SSE 07:00:56 10° SSE 07:01:16 10° SSE daylight
18 Oct - 09:21:52 10° SW 09:25:24 18° S 09:28:28 10° SE daylight
18 Oct - 11:46:42 10° SW 11:49:21 16° S 11:52:11 10° SSE daylight
19 Oct - 08:10:55 10° SSW 08:14:51 17° S 08:18:01 10° SE daylight
19 Oct - 10:35:43 10° SW 10:38:57 18° S 10:42:00 10° SE daylight
20 Oct - 07:00:02 10° SSW 07:04:06 15° SSE 07:07:20 10° SE daylight
20 Oct - 09:24:33 10° SW 09:28:32 20° S 09:31:51 10° SE daylight
20 Oct - 11:50:26 10° SW 11:52:26 13° SSW 11:54:30 10° SSE daylight
21 Oct - 05:49:43 10° S 05:53:05 12° SSE 05:55:54 10° SE visible
21 Oct - 08:13:07 10° SW 08:18:00 20° S 08:21:42 10° SE daylight
21 Oct - 10:38:56 10° SW 10:42:03 17° SSW 10:44:56 10° SSE daylight
22 Oct - 07:01:31 10° SSW 07:07:16 20° S 07:11:24 10° SE daylight
22 Oct - 09:27:23 10° SW 09:31:39 21° S 09:35:06 10° SE daylight
23 Oct - 05:49:59 10° SSW 05:56:15 18° SSE 06:00:47 10° SE visible
23 Oct - 08:15:33 10° SW 08:21:08 24° S 08:25:10 10° SE daylight
23 Oct - 10:42:18 10° SW 10:45:05 15° SSW 10:47:39 10° SSE daylight
24 Oct - 04:39:07 10° S 04:44:56 15° SSE 04:49:23 10° SE visible
24 Oct - 07:03:27 10° SW 07:10:26 24° S 07:15:07 10° ESE daylight
24 Oct - 09:30:20 10° WSW 09:34:44 21° SSW 09:38:14 10° SE daylight
25 Oct - 03:30:44 10° SSE 03:33:16 11° SSE 03:35:33 10° SE visible
25 Oct - 05:51:12 10° SSW 05:59:25 23° SSE 06:04:48 10° ESE visible
25 Oct - 08:18:09 10° WSW 08:24:16 26° S 08:28:31 10° SE daylight
25 Oct - 10:45:59 10° SW 10:48:04 12° SSW 10:50:01 10° S daylight
26 Oct - 04:39:14 10° SSW 04:48:03 20° SSE 04:54:03 10° ESE visible
26 Oct - 07:05:38 10° SW 07:13:35 28° S 07:18:37 10° ESE daylight
26 Oct - 09:33:23 10° WSW 09:37:46 20° SSW 09:41:13 10° SSE daylight
